contact:dominique.lefevre@mio.osupytheas.fr, maurice.libes@osupytheas.fr, didier.mallarino@osupytheas.fr
Project:EMSO http://www.emso-fr.org/EMSO-France
Depth: 2436.0 m
Title:EMSO Ligure Ouest : Data MII capteur AQUADOPP
Date,Latitude,Longitude,X_East,Y_North,Z_Up,Amplitude_X,Amplitude_Y,Amplitude_Z,Batterie,SoundSpeed,Heading,Pitch,Roll,Pressure,TIS,Speed,Direction
, degrees North, degrees East, m.s-1, m.s-1,m.s-1, 1, 1, 1, Volt, m.s-1, degree, degree, degree, dbar, degree_C, m.s-1, degree
2019-05-24T00:00:34,42.805,6.029,0.043,0.018,0.047,98.0,105.0,96.0,13.4,1505.3,328.1,-0.8,2.0,2470.194,13.33,0.046,67.3
2019-05-24T00:03:35,42.805,6.029,0.0,-0.04,-0.015,99.0,105.0,97.0,13.4,1505.3,324.9,-0.8,1.9,2470.186,13.33,0.04,180.0
2019-05-24T00:06:36,42.805,6.029,0.02,-0.017,0.01,100.0,108.0,96.0,13.4,1505.3,326.0,-0.8,2.0,2470.248,13.33,0.026,130.4
2019-05-24T00:09:37,42.805,6.029,0.01,-0.014,0.0,99.0,106.0,96.0,13.4,1505.3,328.5,-0.8,1.9,2470.195,13.33,0.017,144.5
2019-05-24T00:12:38,42.805,6.029,0.022,-0.005,-0.02,100.0,105.0,97.0,13.3,1505.3,325.4,-0.9,1.9,2470.176,13.33,0.022,102.8
2019-05-24T00:15:39,42.805,6.029,0.0,-0.008,-0.03,99.0,109.0,96.0,13.3,1505.3,325.9,-0.9,1.9,2470.234,13.33,0.008,180.0
2019-05-24T00:18:40,42.805,6.029,0.003,-0.002,0.006,100.0,108.0,97.0,13.3,1505.3,324.9,-0.8,1.9,2470.184,13.33,0.003,123.7
2019-05-24T00:21:41,42.805,6.029,0.017,-0.006,0.01,98.0,106.0,95.0,13.4,1505.3,323.7,-0.9,1.9,2470.215,13.33,0.018,109.4
2019-05-24T00:24:42,42.805,6.029,0.014,-0.011,-0.008,98.0,107.0,96.0,13.4,1505.3,325.5,-0.8,1.9,2470.169,13.33,0.017,128.2
2019-05-24T00:27:43,42.805,6.029,0.0,-0.01,0.0,100.0,107.0,96.0,13.4,1505.3,324.9,-0.9,1.9,2470.183,13.33,0.01,180.0
2019-05-24T00:30:44,42.805,6.029,0.019,-0.002,0.016,100.0,104.0,95.0,13.4,1505.3,326.9,-0.8,1.9,2470.208,13.33,0.019,96.0
2019-05-24T00:33:45,42.805,6.029,0.006,-0.024,-0.018,99.0,107.0,96.0,13.3,1505.3,324.6,-0.8,1.9,2470.217,13.33,0.024,166.0
2019-05-24T00:36:46,42.805,6.029,0.017,-0.007,0.019,98.0,107.0,96.0,13.4,1505.3,324.0,-0.8,1.9,2470.157,13.33,0.018,112.4
2019-05-24T00:39:47,42.805,6.029,0.009,0.0,-0.056,97.0,107.0,96.0,13.3,1505.3,325.8,-0.8,1.9,2470.202,13.33,0.009,90.0
2019-05-24T00:42:48,42.805,6.029,0.005,-0.003,-0.005,98.0,107.0,96.0,13.4,1505.3,325.5,-0.8,1.9,2470.162,13.33,0.005,121.0
2019-05-24T00:45:49,42.805,6.029,0.009,-0.012,-0.011,98.0,106.0,97.0,13.3,1505.3,326.9,-0.8,1.9,2470.194,13.33,0.015,143.1
2019-05-24T00:48:50,42.805,6.029,0.03,0.004,-0.011,99.0,108.0,94.0,13.4,1505.3,323.6,-0.8,1.9,2470.207,13.33,0.03,82.4
2019-05-24T00:51:51,42.805,6.029,0.0,-0.018,0.026,100.0,106.0,95.0,13.4,1505.3,324.8,-0.8,1.9,2470.197,13.33,0.018,180.0
2019-05-24T00:54:52,42.805,6.029,0.027,-0.003,0.037,100.0,107.0,95.0,13.4,1505.3,326.6,-0.8,1.9,2470.229,13.33,0.027,96.3
2019-05-24T00:57:53,42.805,6.029,0.001,-0.002,-0.018,100.0,106.0,97.0,13.4,1505.3,327.7,-0.8,1.9,2470.144,13.33,0.002,153.4
2019-05-24T01:00:54,42.805,6.029,-0.004,-0.012,0.001,99.0,106.0,96.0,13.4,1505.3,323.2,-0.9,2.0,2470.159,13.33,0.012,198.4
2019-05-24T01:03:55,42.805,6.029,-0.005,0.005,-0.026,100.0,108.0,97.0,13.3,1505.3,323.5,-0.8,1.9,2470.162,13.33,0.007,315.0
2019-05-24T01:06:56,42.805,6.029,0.001,-0.002,0.0,99.0,106.0,96.0,13.4,1505.3,326.9,-0.8,1.9,2470.147,13.33,0.002,153.4
2019-05-24T01:09:57,42.805,6.029,0.007,-0.019,-0.005,100.0,107.0,95.0,13.4,1505.3,324.8,-0.8,1.9,2470.189,13.33,0.02,159.8
2019-05-24T01:12:58,42.805,6.029,0.042,-0.004,0.048,98.0,106.0,96.0,13.4,1505.3,328.0,-0.8,1.9,2470.176,13.33,0.042,95.4
2019-05-24T01:15:59,42.805,6.029,0.005,-0.001,0.017,99.0,107.0,96.0,13.4,1505.3,324.6,-0.8,1.9,2470.178,13.33,0.005,101.3
2019-05-24T01:19:00,42.805,6.029,-0.003,-0.022,-0.019,99.0,107.0,96.0,13.4,1505.3,324.1,-0.9,1.9,2470.165,13.33,0.022,187.8
2019-05-24T01:22:01,42.805,6.029,0.015,-0.006,0.029,99.0,108.0,97.0,13.4,1505.3,324.1,-0.8,1.9,2470.206,13.33,0.016,111.8
2019-05-24T01:25:02,42.805,6.029,0.013,-0.006,0.01,99.0,107.0,96.0,13.4,1505.3,326.0,-0.8,1.9,2470.183,13.33,0.014,114.8
2019-05-24T01:28:03,42.805,6.029,-0.008,-0.032,-0.037,100.0,104.0,97.0,13.3,1505.3,324.4,-0.9,1.9,2470.134,13.33,0.032,194.0
2019-05-24T01:31:04,42.805,6.029,0.034,-0.014,0.022,100.0,107.0,96.0,13.4,1505.3,326.0,-0.8,1.9,2470.174,13.33,0.036,112.4
2019-05-24T01:34:05,42.805,6.029,0.004,-0.017,0.013,101.0,106.0,96.0,13.3,1505.3,328.5,-0.8,1.9,2470.135,13.33,0.017,166.8
2019-05-24T01:37:06,42.805,6.029,0.0,-0.014,-0.008,98.0,108.0,97.0,13.4,1505.3,325.0,-0.8,1.9,2470.174,13.33,0.014,180.0
2019-05-24T01:40:07,42.805,6.029,0.014,-0.02,0.012,99.0,103.0,98.0,13.4,1505.3,323.8,-0.8,1.9,2470.148,13.33,0.024,145.0
2019-05-24T01:43:08,42.805,6.029,0.022,-0.007,0.019,100.0,104.0,96.0,13.3,1505.3,327.7,-0.9,1.9,2470.14,13.33,0.023,107.6
2019-05-24T01:46:09,42.805,6.029,0.022,-0.01,-0.008,100.0,105.0,96.0,13.4,1505.3,326.1,-0.8,1.9,2470.125,13.33,0.024,114.4
2019-05-24T01:49:10,42.805,6.029,0.02,-0.02,0.003,97.0,104.0,97.0,13.4,1505.3,326.4,-0.8,1.9,2470.171,13.33,0.028,135.0
2019-05-24T01:52:11,42.805,6.029,-0.001,-0.028,-0.023,99.0,105.0,97.0,13.3,1505.3,325.6,-0.8,1.9,2470.159,13.33,0.028,182.0
2019-05-24T01:55:12,42.805,6.029,-0.009,-0.011,-0.024,98.0,106.0,95.0,13.4,1505.3,326.0,-0.8,1.9,2470.193,13.33,0.014,219.3
2019-05-24T01:58:13,42.805,6.029,0.001,-0.019,0.0,100.0,105.0,97.0,13.3,1505.3,325.4,-0.8,1.9,2470.134,13.33,0.019,177.0
2019-05-24T02:01:14,42.805,6.029,0.023,-0.026,0.024,99.0,107.0,98.0,13.4,1505.3,328.3,-0.9,1.9,2470.172,13.33,0.034,138.5
2019-05-24T02:04:15,42.805,6.029,0.056,-0.024,0.047,99.0,106.0,95.0,13.4,1505.3,323.4,-0.8,1.9,2470.16,13.32,0.06,113.2
2019-05-24T02:07:16,42.805,6.029,0.027,-0.03,-0.004,98.0,106.0,96.0,13.4,1505.3,325.4,-0.8,1.9,2470.158,13.32,0.04,138.0
2019-05-24T02:10:17,42.805,6.029,0.037,-0.032,-0.017,98.0,106.0,96.0,13.3,1505.3,324.5,-0.8,1.9,2470.145,13.32,0.048,130.9
2019-05-24T02:13:18,42.805,6.029,0.012,-0.018,0.03,100.0,106.0,96.0,13.4,1505.3,326.1,-0.8,1.9,2470.127,13.32,0.021,146.3
2019-05-24T02:16:19,42.805,6.029,-0.002,-0.018,-0.002,98.0,102.0,96.0,13.4,1505.3,324.3,-0.8,2.0,2470.16,13.32,0.018,186.3
2019-05-24T02:19:20,42.805,6.029,0.04,-0.015,-0.001,98.0,102.0,96.0,13.4,1505.3,323.2,-0.8,1.9,2470.137,13.32,0.042,110.6
2019-05-24T02:22:21,42.805,6.029,0.026,-0.007,-0.007,97.0,105.0,95.0,13.4,1505.3,324.9,-0.8,1.9,2470.207,13.32,0.026,105.1
2019-05-24T02:25:22,42.805,6.029,0.03,-0.025,0.014,97.0,106.0,94.0,13.4,1505.3,324.3,-0.8,1.9,2470.203,13.32,0.039,129.8
2019-05-24T02:28:23,42.805,6.029,0.021,-0.016,0.014,97.0,103.0,97.0,13.3,1505.3,328.2,-0.8,1.9,2470.156,13.32,0.026,127.3
2019-05-24T02:31:24,42.805,6.029,0.051,-0.026,-0.004,98.0,102.0,96.0,13.4,1505.3,325.3,-0.9,1.9,2470.165,13.32,0.057,117.0
2019-05-24T02:34:25,42.805,6.029,0.024,-0.017,-0.008,98.0,103.0,97.0,13.3,1505.3,322.8,-0.8,1.9,2470.11,13.32,0.029,125.3
2019-05-24T02:37:26,42.805,6.029,0.016,-0.012,0.015,100.0,101.0,95.0,13.4,1505.3,324.7,-0.8,1.9,2470.15,13.32,0.02,126.9
2019-05-24T02:40:27,42.805,6.029,0.018,-0.035,-0.005,99.0,101.0,98.0,13.4,1505.3,326.8,-0.8,1.9,2470.144,13.32,0.039,152.8
2019-05-24T02:43:28,42.805,6.029,0.026,-0.029,0.005,98.0,102.0,96.0,13.3,1505.3,322.7,-0.8,1.9,2470.152,13.32,0.038,138.1
2019-05-24T02:46:29,42.805,6.029,0.028,-0.023,-0.012,98.0,101.0,97.0,13.4,1505.3,324.6,-0.8,2.0,2470.101,13.33,0.036,129.4
2019-05-24T02:49:30,42.805,6.029,0.021,-0.023,-0.013,98.0,103.0,98.0,13.4,1505.3,327.0,-0.8,1.9,2470.137,13.33,0.031,137.6
2019-05-24T02:52:31,42.805,6.029,0.008,-0.015,-0.018,99.0,102.0,96.0,13.3,1505.3,324.6,-0.8,1.9,2470.143,13.33,0.017,151.9
2019-05-24T02:55:32,42.805,6.029,0.02,-0.023,0.016,99.0,104.0,95.0,13.4,1505.3,327.2,-0.9,1.9,2470.084,13.33,0.03,139.0
2019-05-24T02:58:33,42.805,6.029,0.038,-0.028,0.025,99.0,103.0,96.0,13.4,1505.3,326.0,-0.8,1.9,2470.135,13.33,0.047,126.4
2019-05-24T03:01:34,42.805,6.029,-0.017,-0.043,-0.022,98.0,103.0,97.0,13.4,1505.3,325.5,-0.8,1.9,2470.097,13.33,0.046,201.6
2019-05-24T03:04:35,42.805,6.029,0.032,-0.028,0.019,98.0,101.0,96.0,13.4,1505.3,324.3,-0.8,1.9,2470.142,13.33,0.042,131.2
2019-05-24T03:07:36,42.805,6.029,0.022,-0.015,0.021,98.0,102.0,96.0,13.3,1505.3,326.4,-0.8,1.9,2470.143,13.32,0.026,124.3
2019-05-24T03:10:37,42.805,6.029,0.024,-0.007,0.021,98.0,104.0,98.0,13.4,1505.3,326.0,-0.8,1.9,2470.116,13.32,0.025,106.3
2019-05-24T03:13:38,42.805,6.029,0.034,-0.027,0.012,99.0,103.0,96.0,13.4,1505.3,327.9,-0.8,1.9,2470.124,13.32,0.043,128.5
2019-05-24T03:16:39,42.805,6.029,0.014,-0.017,0.002,100.0,103.0,96.0,13.4,1505.3,326.0,-0.8,1.9,2470.128,13.32,0.022,140.5
2019-05-24T03:19:40,42.805,6.029,-0.014,-0.039,-0.033,99.0,102.0,96.0,13.3,1505.3,327.2,-0.8,2.0,2470.113,13.32,0.041,199.7
2019-05-24T03:22:41,42.805,6.029,0.022,-0.012,-0.009,99.0,102.0,97.0,13.4,1505.3,324.9,-0.8,1.9,2470.163,13.32,0.025,118.6
2019-05-24T03:25:42,42.805,6.029,0.003,-0.033,0.005,99.0,105.0,96.0,13.4,1505.3,326.6,-0.8,1.9,2470.118,13.32,0.033,174.8
2019-05-24T03:28:43,42.805,6.029,0.007,-0.02,-0.018,99.0,104.0,96.0,13.4,1505.3,324.5,-0.8,1.9,2470.071,13.32,0.021,160.7
2019-05-24T03:31:44,42.805,6.029,0.015,-0.034,0.005,100.0,102.0,96.0,13.4,1505.3,327.0,-0.9,1.9,2470.096,13.32,0.037,156.2
2019-05-24T03:34:45,42.805,6.029,0.002,-0.031,-0.022,99.0,103.0,97.0,13.4,1505.3,326.4,-0.8,1.9,2470.117,13.32,0.031,176.3
2019-05-24T03:37:46,42.805,6.029,0.033,-0.014,-0.002,100.0,103.0,96.0,13.4,1505.3,324.9,-0.8,1.9,2470.085,13.32,0.035,113.0
2019-05-24T03:40:47,42.805,6.029,0.047,-0.031,-0.004,99.0,103.0,97.0,13.4,1505.3,328.3,-0.8,1.9,2470.141,13.32,0.056,123.4
2019-05-24T03:43:48,42.805,6.029,0.028,-0.02,0.014,99.0,105.0,96.0,13.4,1505.3,324.9,-0.8,1.9,2470.107,13.32,0.034,125.5
2019-05-24T03:46:49,42.805,6.029,0.031,-0.021,0.012,98.0,105.0,96.0,13.3,1505.3,323.9,-0.8,1.9,2470.101,13.32,0.037,124.1
2019-05-24T03:49:50,42.805,6.029,0.024,-0.034,-0.01,98.0,104.0,97.0,13.4,1505.3,327.6,-0.8,1.9,2470.125,13.32,0.041,144.8
2019-05-24T03:52:51,42.805,6.029,0.037,-0.026,0.016,99.0,103.0,97.0,13.4,1505.3,323.9,-0.8,1.9,2470.096,13.32,0.045,125.1
2019-05-24T03:55:52,42.805,6.029,0.012,-0.042,-0.006,99.0,105.0,97.0,13.4,1505.3,327.2,-0.8,1.9,2470.12,13.32,0.043,164.1
2019-05-24T03:58:53,42.805,6.029,0.04,-0.02,0.015,99.0,103.0,96.0,13.3,1505.3,324.3,-0.8,1.9,2470.088,13.32,0.044,116.6
2019-05-24T04:01:54,42.805,6.029,0.031,-0.035,0.008,99.0,103.0,96.0,13.3,1505.3,327.8,-0.8,1.9,2470.09,13.32,0.046,138.5
2019-05-24T04:04:55,42.805,6.029,0.012,-0.023,0.016,100.0,102.0,96.0,13.4,1505.3,324.7,-0.8,1.9,2470.088,13.32,0.025,152.4
2019-05-24T04:07:56,42.805,6.029,0.016,-0.017,0.01,98.0,101.0,97.0,13.4,1505.3,324.6,-0.8,1.9,2470.102,13.32,0.023,136.7
2019-05-24T04:10:57,42.805,6.029,0.024,-0.034,-0.034,99.0,103.0,97.0,13.3,1505.3,323.8,-0.8,1.9,2470.077,13.32,0.041,144.8
2019-05-24T04:13:58,42.805,6.029,0.022,-0.024,0.008,99.0,101.0,96.0,13.3,1505.3,327.3,-0.8,1.9,2470.056,13.33,0.032,137.5
2019-05-24T04:16:59,42.805,6.029,0.01,-0.024,-0.003,100.0,102.0,97.0,13.4,1505.3,323.6,-0.8,1.9,2470.107,13.33,0.026,157.4
2019-05-24T04:20:00,42.805,6.029,0.018,-0.021,0.006,99.0,101.0,98.0,13.4,1505.3,325.6,-0.8,1.9,2470.102,13.33,0.027,139.4
2019-05-24T04:23:01,42.805,6.029,0.054,-0.037,-0.026,99.0,102.0,96.0,13.3,1505.3,324.3,-0.8,1.9,2470.109,13.32,0.065,124.4
2019-05-24T04:26:02,42.805,6.029,0.029,-0.039,-0.001,100.0,101.0,98.0,13.4,1505.3,326.8,-0.8,1.9,2470.08,13.32,0.048,143.4
2019-05-24T04:29:03,42.805,6.029,0.025,-0.037,0.037,99.0,102.0,97.0,13.4,1505.3,326.1,-0.8,1.9,2470.086,13.32,0.044,146.0
2019-05-24T04:32:04,42.805,6.029,0.041,-0.051,0.002,98.0,100.0,97.0,13.4,1505.3,324.2,-0.8,1.9,2470.063,13.32,0.065,141.2
2019-05-24T04:35:05,42.805,6.029,0.002,-0.041,0.003,99.0,102.0,97.0,13.4,1505.3,326.0,-0.8,1.9,2470.076,13.33,0.041,177.2
2019-05-24T04:38:06,42.805,6.029,0.015,-0.014,-0.019,99.0,102.0,96.0,13.3,1505.3,323.5,-0.8,1.9,2470.086,13.33,0.02,133.0
2019-05-24T04:41:07,42.805,6.029,0.012,-0.019,-0.006,99.0,103.0,96.0,13.3,1505.3,328.4,-0.8,1.9,2470.029,13.33,0.022,147.7
2019-05-24T04:44:08,42.805,6.029,0.028,-0.027,-0.015,100.0,102.0,97.0,13.4,1505.3,325.5,-0.8,1.9,2470.072,13.33,0.038,134.0
2019-05-24T04:47:09,42.805,6.029,0.029,-0.018,0.011,98.0,101.0,96.0,13.4,1505.3,324.4,-0.8,1.9,2470.089,13.33,0.034,121.8
2019-05-24T04:50:10,42.805,6.029,0.008,-0.04,0.007,101.0,102.0,96.0,13.4,1505.3,324.4,-0.8,1.9,2470.083,13.33,0.04,168.7
2019-05-24T04:53:11,42.805,6.029,0.022,-0.033,0.005,102.0,105.0,96.0,13.4,1505.3,328.6,-0.8,2.0,2470.069,13.33,0.039,146.3
2019-05-24T04:56:12,42.805,6.029,0.017,-0.047,-0.003,98.0,104.0,96.0,13.4,1505.3,324.9,-0.8,1.9,2470.076,13.33,0.049,160.1
2019-05-24T04:59:13,42.805,6.029,0.0,0.005,-0.005,100.0,102.0,96.0,13.3,1505.3,326.6,-0.8,1.9,2470.047,13.33,0.005,0.0
2019-05-24T05:02:14,42.805,6.029,0.014,-0.028,0.024,99.0,101.0,97.0,13.4,1505.3,323.3,-0.8,1.9,2470.08,13.32,0.031,153.4
2019-05-24T05:05:15,42.805,6.029,0.026,-0.025,0.009,98.0,101.0,97.0,13.4,1505.3,324.8,-0.8,1.9,2470.074,13.32,0.036,133.9
2019-05-24T05:08:16,42.805,6.029,0.007,-0.037,0.014,100.0,103.0,95.0,13.4,1505.3,324.7,-0.8,1.9,2470.096,13.33,0.037,169.3
2019-05-24T05:11:17,42.805,6.029,0.018,-0.023,-0.005,100.0,105.0,96.0,13.3,1505.3,325.4,-0.9,1.9,2470.051,13.33,0.029,142.0
2019-05-24T05:14:18,42.805,6.029,0.03,-0.046,0.009,100.0,105.0,96.0,13.4,1505.3,326.6,-0.8,1.9,2470.107,13.33,0.054,146.9
2019-05-24T05:17:19,42.805,6.029,0.054,-0.014,0.038,98.0,101.0,97.0,13.3,1505.3,323.5,-0.8,1.9,2470.077,13.33,0.055,104.5
2019-05-24T05:20:20,42.805,6.029,0.03,-0.028,-0.01,99.0,105.0,97.0,13.3,1505.3,327.6,-0.8,1.9,2470.09,13.33,0.041,133.0
2019-05-24T05:23:21,42.805,6.029,0.047,-0.049,0.015,100.0,105.0,97.0,13.3,1505.3,326.8,-0.9,1.9,2470.049,13.33,0.067,136.2
2019-05-24T05:26:22,42.805,6.029,0.013,-0.016,0.028,100.0,102.0,96.0,13.4,1505.3,323.3,-0.8,1.9,2470.052,13.33,0.02,140.9
2019-05-24T05:29:23,42.805,6.029,0.016,-0.026,0.004,99.0,103.0,95.0,13.3,1505.3,325.1,-0.8,1.9,2470.077,13.33,0.03,148.4
2019-05-24T05:32:24,42.805,6.029,0.014,-0.014,-0.009,97.0,101.0,96.0,13.4,1505.3,323.3,-0.8,1.9,2470.109,13.33,0.019,135.0
2019-05-24T05:35:25,42.805,6.029,0.012,-0.031,-0.013,99.0,105.0,96.0,13.4,1505.3,328.0,-0.9,1.9,2470.028,13.33,0.033,158.8
2019-05-24T05:38:26,42.805,6.029,0.036,-0.056,0.008,99.0,103.0,97.0,13.3,1505.3,324.0,-0.8,1.9,2470.062,13.33,0.066,147.3
2019-05-24T05:41:27,42.805,6.029,0.035,-0.033,-0.002,99.0,105.0,97.0,13.4,1505.3,323.4,-0.8,1.9,2470.029,13.33,0.048,133.3
2019-05-24T05:44:28,42.805,6.029,0.019,-0.036,-0.022,100.0,106.0,97.0,13.4,1505.3,326.7,-0.8,1.9,2470.031,13.33,0.04,152.2
2019-05-24T05:47:29,42.805,6.029,0.01,-0.037,-0.015,100.0,105.0,96.0,13.4,1505.3,325.0,-0.8,1.9,2470.056,13.33,0.038,164.9
2019-05-24T05:50:30,42.805,6.029,0.025,-0.016,0.05,99.0,105.0,97.0,13.4,1505.3,322.7,-0.8,1.9,2470.06,13.33,0.029,122.6
2019-05-24T05:53:31,42.805,6.029,0.027,-0.022,0.01,98.0,103.0,98.0,13.4,1505.3,326.1,-0.8,1.9,2470.101,13.33,0.034,129.2
2019-05-24T05:56:32,42.805,6.029,0.033,-0.026,0.009,100.0,103.0,95.0,13.4,1505.3,325.5,-0.8,1.9,2470.084,13.33,0.042,128.2
2019-05-24T05:59:33,42.805,6.029,0.012,-0.022,-0.01,99.0,105.0,95.0,13.3,1505.3,325.9,-0.8,1.9,2470.042,13.33,0.025,151.4
2019-05-24T06:02:34,42.805,6.029,-0.024,-0.037,-0.029,98.0,106.0,97.0,13.3,1505.3,328.1,-0.8,1.9,2470.062,13.33,0.044,213.0
2019-05-24T06:05:35,42.805,6.029,0.002,-0.036,-0.059,99.0,101.0,97.0,13.4,1505.3,325.1,-0.8,1.9,2470.046,13.33,0.036,176.8
2019-05-24T06:08:36,42.805,6.029,-0.006,-0.018,-0.017,99.0,103.0,97.0,13.4,1505.3,326.9,-0.8,1.9,2470.068,13.33,0.018,198.4
2019-05-24T06:11:37,42.805,6.029,-0.003,-0.036,-0.015,100.0,103.0,97.0,13.4,1505.3,325.7,-0.8,1.9,2470.033,13.33,0.036,184.8
2019-05-24T06:14:38,42.805,6.029,-0.014,-0.019,-0.025,98.0,102.0,96.0,13.4,1505.3,324.7,-0.8,1.9,2470.079,13.33,0.023,216.4
2019-05-24T06:17:39,42.805,6.029,0.015,-0.019,-0.003,99.0,101.0,95.0,13.4,1505.3,324.0,-0.8,1.9,2470.027,13.33,0.024,141.7
2019-05-24T06:20:40,42.805,6.029,-0.008,-0.014,-0.014,100.0,103.0,96.0,13.4,1505.3,328.2,-0.9,1.9,2470.048,13.33,0.016,209.7
2019-05-24T06:23:41,42.805,6.029,0.026,-0.036,-0.005,97.0,104.0,97.0,13.3,1505.3,325.5,-0.8,1.9,2470.067,13.33,0.044,144.2
2019-05-24T06:26:42,42.805,6.029,0.009,-0.014,0.039,99.0,105.0,97.0,13.4,1505.3,323.3,-0.8,1.9,2470.054,13.33,0.016,147.3
2019-05-24T06:29:43,42.805,6.029,0.038,-0.028,0.037,98.0,105.0,96.0,13.4,1505.3,327.0,-0.8,2.0,2470.054,13.33,0.047,126.4
2019-05-24T06:32:44,42.805,6.029,0.025,-0.001,0.021,98.0,105.0,96.0,13.4,1505.3,326.8,-0.9,1.9,2470.122,13.33,0.025,92.3
2019-05-24T06:35:45,42.805,6.029,0.018,-0.016,-0.002,97.0,103.0,95.0,13.4,1505.3,325.7,-0.9,1.9,2470.043,13.33,0.024,131.6
2019-05-24T06:38:46,42.805,6.029,0.019,-0.009,-0.006,100.0,104.0,95.0,13.3,1505.3,326.0,-0.8,1.9,2470.063,13.33,0.021,115.3
2019-05-24T06:41:47,42.805,6.029,0.003,-0.025,0.004,97.0,104.0,96.0,13.4,1505.3,327.1,-0.8,1.9,2470.057,13.33,0.025,173.2
2019-05-24T06:44:48,42.805,6.029,-0.014,-0.002,-0.036,99.0,105.0,97.0,13.4,1505.3,325.1,-0.8,1.9,2470.064,13.33,0.014,261.9
2019-05-24T06:47:49,42.805,6.029,0.001,-0.019,-0.02,99.0,104.0,97.0,13.3,1505.3,325.6,-0.8,1.9,2470.023,13.33,0.019,177.0
2019-05-24T06:50:50,42.805,6.029,0.023,-0.041,-0.01,98.0,105.0,96.0,13.4,1505.3,327.8,-0.8,1.9,2470.084,13.33,0.047,150.7
2019-05-24T06:53:51,42.805,6.029,0.03,-0.005,0.029,99.0,104.0,97.0,13.4,1505.3,326.9,-0.8,1.9,2470.029,13.33,0.03,99.5
2019-05-24T06:56:52,42.805,6.029,0.022,-0.03,-0.012,97.0,104.0,97.0,13.4,1505.3,327.8,-0.8,1.9,2470.057,13.33,0.037,143.7
2019-05-24T06:59:53,42.805,6.029,-0.037,-0.009,-0.007,99.0,103.0,96.0,13.4,1505.3,324.5,-0.8,1.9,2470.079,13.33,0.038,256.3
2019-05-24T07:02:54,42.805,6.029,0.037,-0.012,0.026,102.0,104.0,96.0,13.4,1505.3,326.6,-0.8,1.9,2470.071,13.33,0.038,108.0
2019-05-24T07:05:55,42.805,6.029,-0.002,-0.034,-0.002,98.0,103.0,97.0,13.4,1505.3,326.3,-0.8,1.9,2470.056,13.33,0.034,183.4
2019-05-24T07:08:56,42.805,6.029,-0.006,-0.005,0.0,97.0,102.0,96.0,13.4,1505.3,325.1,-0.8,1.9,2470.047,13.33,0.007,230.2
2019-05-24T07:11:57,42.805,6.029,0.019,-0.005,0.027,101.0,104.0,96.0,13.4,1505.3,323.1,-0.8,1.9,2470.022,13.33,0.019,104.7
2019-05-24T07:14:58,42.805,6.029,0.045,-0.009,0.036,98.0,104.0,96.0,13.3,1505.3,325.3,-0.8,1.9,2470.08,13.33,0.045,101.3
2019-05-24T07:17:59,42.805,6.029,0.012,-0.012,-0.018,99.0,104.0,97.0,13.4,1505.3,325.8,-0.8,1.9,2470.077,13.33,0.016,135.0
2019-05-24T07:21:00,42.805,6.029,0.024,-0.005,0.042,99.0,103.0,96.0,13.4,1505.3,324.5,-0.8,1.9,2470.061,13.33,0.024,101.8
2019-05-24T07:24:01,42.805,6.029,-0.025,-0.022,-0.005,98.0,105.0,95.0,13.3,1505.3,325.2,-0.8,1.9,2470.097,13.33,0.033,228.7
2019-05-24T07:27:02,42.805,6.029,-0.038,-0.011,-0.032,99.0,103.0,96.0,13.4,1505.3,323.7,-0.8,1.9,2470.073,13.33,0.039,253.9
2019-05-24T07:30:03,42.805,6.029,-0.024,-0.033,0.001,100.0,103.0,97.0,13.4,1505.3,326.0,-0.8,1.9,2470.096,13.33,0.04,216.0
2019-05-24T07:33:04,42.805,6.029,-0.022,-0.009,-0.009,100.0,103.0,96.0,13.4,1505.3,326.7,-0.8,1.9,2470.063,13.33,0.023,247.8
2019-05-24T07:36:05,42.805,6.029,0.012,-0.021,0.017,99.0,103.0,96.0,13.3,1505.3,327.7,-0.8,1.9,2470.03,13.33,0.024,150.3
2019-05-24T07:39:06,42.805,6.029,-0.01,-0.01,-0.008,99.0,103.0,96.0,13.4,1505.3,326.8,-0.8,1.9,2470.067,13.33,0.014,225.0
2019-05-24T07:42:07,42.805,6.029,0.0,-0.018,-0.03,98.0,106.0,95.0,13.4,1505.3,323.5,-0.8,1.9,2470.045,13.33,0.018,180.0
2019-05-24T07:45:08,42.805,6.029,0.01,-0.011,-0.001,99.0,105.0,96.0,13.3,1505.3,324.4,-0.8,1.9,2470.07,13.33,0.014,137.7
2019-05-24T07:48:09,42.805,6.029,-0.019,-0.014,-0.022,99.0,104.0,96.0,13.4,1505.3,325.1,-0.8,1.9,2470.031,13.33,0.023,233.6
2019-05-24T07:51:10,42.805,6.029,-0.003,0.004,0.015,99.0,103.0,96.0,13.4,1505.3,328.1,-0.8,1.9,2470.095,13.33,0.005,323.1
2019-05-24T07:54:11,42.805,6.029,0.031,-0.019,0.016,98.0,104.0,99.0,13.4,1505.3,324.2,-0.8,1.9,2470.078,13.33,0.036,121.5
2019-05-24T07:57:12,42.805,6.029,0.032,-0.036,0.019,99.0,104.0,96.0,13.4,1505.3,326.5,-0.8,1.9,2470.071,13.33,0.048,138.4
2019-05-24T08:00:13,42.805,6.029,0.021,0.0,0.012,98.0,104.0,96.0,13.4,1505.3,323.4,-0.8,1.9,2470.081,13.33,0.021,90.0
2019-05-24T08:03:14,42.805,6.029,0.047,-0.014,0.022,100.0,104.0,96.0,13.4,1505.3,327.9,-0.8,1.9,2470.069,13.33,0.049,106.6
2019-05-24T08:06:15,42.805,6.029,0.046,-0.026,0.022,99.0,105.0,96.0,13.3,1505.3,326.1,-0.8,1.9,2470.097,13.33,0.052,119.5
2019-05-24T08:09:16,42.805,6.029,0.0,-0.001,0.023,99.0,103.0,95.0,13.4,1505.3,322.9,-0.8,1.9,2470.043,13.33,0.001,180.0
2019-05-24T08:12:17,42.805,6.029,-0.016,-0.004,-0.032,100.0,104.0,97.0,13.3,1505.3,327.4,-0.8,1.9,2470.103,13.33,0.016,256.0
2019-05-24T08:15:18,42.805,6.029,0.002,-0.01,-0.043,98.0,106.0,98.0,13.4,1505.4,326.6,-0.8,1.9,2470.098,13.34,0.01,168.7
2019-05-24T08:18:19,42.805,6.029,0.045,-0.011,0.02,100.0,102.0,97.0,13.4,1505.4,326.0,-0.8,1.9,2470.074,13.34,0.046,103.7
2019-05-24T08:21:20,42.805,6.029,-0.036,-0.024,-0.069,99.0,105.0,95.0,13.4,1505.4,325.7,-0.8,1.9,2470.102,13.34,0.043,236.3
2019-05-24T08:24:21,42.805,6.029,0.043,-0.019,0.021,101.0,103.0,96.0,13.4,1505.4,324.3,-0.8,1.9,2470.078,13.34,0.047,113.8
2019-05-24T08:27:22,42.805,6.029,0.022,-0.002,0.06,99.0,103.0,96.0,13.4,1505.4,324.9,-0.8,1.9,2470.105,13.34,0.022,95.2
2019-05-24T08:30:23,42.805,6.029,0.019,-0.006,0.028,100.0,104.0,95.0,13.4,1505.4,326.6,-0.8,1.9,2470.07,13.34,0.019,107.5
2019-05-24T08:33:24,42.805,6.029,-0.027,-0.019,-0.01,99.0,105.0,97.0,13.4,1505.4,322.8,-0.8,1.9,2470.074,13.34,0.033,234.9
2019-05-24T08:36:25,42.805,6.029,0.01,-0.016,-0.011,100.0,104.0,96.0,13.4,1505.4,326.0,-0.9,1.9,2470.067,13.34,0.018,148.0
2019-05-24T08:39:26,42.805,6.029,-0.008,-0.011,-0.069,100.0,103.0,97.0,13.4,1505.3,326.6,-0.8,1.9,2470.065,13.33,0.013,216.0
2019-05-24T08:42:27,42.805,6.029,-0.042,-0.029,-0.068,100.0,104.0,98.0,13.4,1505.4,327.7,-0.8,1.9,2470.121,13.34,0.051,235.4
2019-05-24T08:45:28,42.805,6.029,-0.029,-0.019,-0.037,98.0,104.0,96.0,13.4,1505.4,325.8,-0.8,1.9,2470.157,13.34,0.034,236.8
2019-05-24T08:48:29,42.805,6.029,0.002,-0.017,0.001,100.0,103.0,97.0,13.3,1505.4,324.0,-0.8,1.9,2470.11,13.34,0.017,173.3
2019-05-24T08:51:30,42.805,6.029,-0.021,-0.018,-0.019,99.0,103.0,97.0,13.3,1505.4,326.8,-0.8,1.9,2470.118,13.34,0.027,229.4
2019-05-24T08:54:31,42.805,6.029,-0.001,-0.013,-0.019,96.0,104.0,96.0,13.3,1505.4,324.2,-0.8,1.9,2470.104,13.34,0.013,184.4
2019-05-24T08:57:32,42.805,6.029,-0.044,-0.005,-0.02,98.0,103.0,96.0,13.4,1505.4,327.0,-0.8,1.9,2470.075,13.34,0.044,263.5
2019-05-24T09:00:33,42.805,6.029,-0.018,-0.015,-0.062,99.0,103.0,95.0,13.3,1505.4,324.4,-0.8,1.9,2470.085,13.34,0.023,230.2
2019-05-24T09:03:34,42.805,6.029,-0.026,-0.028,-0.019,100.0,102.0,95.0,13.4,1505.4,326.4,-0.8,1.9,2470.107,13.34,0.038,222.9
2019-05-24T09:06:35,42.805,6.029,-0.008,0.016,0.016,98.0,103.0,100.0,13.3,1505.4,325.1,-0.8,1.9,2470.072,13.34,0.017,333.4
2019-05-24T09:09:36,42.805,6.029,-0.008,-0.026,-0.025,98.0,105.0,98.0,13.4,1505.4,324.9,-0.8,1.9,2470.138,13.34,0.027,197.1
2019-05-24T09:12:37,42.805,6.029,-0.022,-0.039,-0.027,99.0,103.0,95.0,13.4,1505.4,324.0,-0.8,1.9,2470.121,13.34,0.044,209.4
2019-05-24T09:15:38,42.805,6.029,-0.036,-0.031,-0.038,98.0,103.0,97.0,13.3,1505.4,326.9,-0.8,1.9,2470.077,13.34,0.047,229.3
2019-05-24T09:18:39,42.805,6.029,-0.024,-0.01,0.0,98.0,103.0,98.0,13.4,1505.4,324.5,-0.8,1.9,2470.111,13.34,0.026,247.4
2019-05-24T09:21:40,42.805,6.029,-0.009,-0.006,-0.012,98.0,103.0,95.0,13.4,1505.4,325.6,-0.8,1.8,2470.102,13.34,0.01,236.3
2019-05-24T09:24:41,42.805,6.029,-0.026,-0.019,-0.005,98.0,103.0,95.0,13.4,1505.4,326.3,-0.8,1.9,2470.111,13.34,0.032,233.8
2019-05-24T09:27:42,42.805,6.029,-0.014,-0.019,-0.03,98.0,102.0,97.0,13.4,1505.4,327.4,-0.8,1.9,2470.035,13.34,0.023,216.4
2019-05-24T09:30:43,42.805,6.029,-0.026,-0.027,-0.084,97.0,104.0,96.0,13.3,1505.4,327.1,-0.8,1.9,2470.091,13.34,0.037,223.9
2019-05-24T09:33:44,42.805,6.029,-0.028,-0.015,-0.036,99.0,104.0,95.0,13.4,1505.4,323.8,-0.8,1.9,2470.076,13.34,0.031,241.8
2019-05-24T09:36:45,42.805,6.029,-0.001,-0.013,0.004,99.0,101.0,96.0,13.4,1505.4,325.2,-0.8,1.9,2470.09,13.34,0.013,184.4